Skip Navigation Links
NOAA logo - Click to go to the NOAA homepage
NOAA's National Weather Service
Alaska Aviation Weather Unit
  NWS logo - Click to go to the NWS homepage
Left Navbar Graphic     22 AKDT = 06 GMT

   
NOAA is celebrating 200 years of science, service, and stewardship. Visit the NOAA 200th celebration Web site to learn more.
USA.gov is the U.S. Government's official Web portal to all Federal, state and local government Web resources and services.
Facebook
NWS on Facebook

Important Change Regarding the AAWU Web Presence

 

Over the last several months, the AAWU has been working to navigate its webpages to a nationally supported server. Security, as well as other needs, have necessitated the change.  In the process, we have made an effort to enhance the functionality of our website, as well as some of our products. As of June 20, 2017, aawu.arh.noaa.gov will be discontinued. The new AAWU web address is weather.gov/aawu. It is now live and will run in-parallel with the old site until it is discontinued. Please send any feedback or questions regarding the new webpages to nws.ar.aawu.webauthors@noaa.gov.  Thank you for your patience during this time of transition.
AAWU Home :: Display TAF Add Bookmark
TAF PAQT 280537Z 2806/2906 10009KT P6SM SCT120
     FM290400 08012KT P6SM BKN007=
METAR PAQT 280053Z AUTO 10008KT 10SM CLR 07/01 A3013 RMK AO2 SLP204
     T00720006 TSNO=

METAR PAQT 280153Z AUTO 08009KT 10SM CLR 07/00 A3013 RMK AO2 SLP202
     T00720000 TSNO=

METAR PAQT 280253Z AUTO 08008KT 10SM CLR 07/01 A3013 RMK AO2 SLP203
     T00670006 55001 TSNO=

METAR PAQT 280353Z AUTO 10010KT 10SM CLR 06/00 A3012 RMK AO2 SLP201
     T00560000 TSNO=

METAR PAQT 280453Z AUTO 10009KT 10SM CLR 06/00 A3012 RMK AO2 SLP201
     T00560000 TSNO=

METAR PAQT 280553Z AUTO 09007KT 10SM CLR 04/01 A3012 RMK AO2 SLP200
     T00390006 10078 20039 56003 TSNO=


NOAA's National Weather Service
Alaska Aviation Weather Unit
6930 Sand Lake Road
Anchorage, AK 99502-1845
Disclaimer
Credits
Glossary
Privacy Policy
About Us
Career Opportunities
Contact AAWU Internet Services Site last modified: April, 17th 2012